Regional Weather Roundup
Issued by NWS Sioux Falls, SD

Home | Current Version | Previous Version | Graphics & Text | Print | Product List | Glossary On
Versions: 1 2 3 4 5 6 7 8 9 10 11 12 13 14 15 16 17 18 19 20 21 22 23 24 25 26 27 28 29 30 31 32 33 34 35 36 37 38 39 40 41 42 43 44 45 46 47 48 49 50
000
ASUS43 KFSD 152210
RWRFSD

WEATHER ROUNDUP FOR SE SOUTH DAKOTA/SW MINNESOTA/NW IOWA
NATIONAL WEATHER SERVICE SIOUX FALLS SD
400 PM CST FRI DEC 15 2017

NOTE: "FAIR" INDICATES FEW OR NO CLOUDS BELOW 12,000 FEET WITH NO
SIGNIFICANT WEATHER AND OR OBSTRUCTIONS TO VISIBILITY.


SDZ038>040-050-052>070-152300-
SOUTHEAST SOUTH DAKOTA

CITY           SKY/WX    TMP DP  RH WIND       PRES   REMARKS
BROOKINGS      CLOUDY    38  26  62 S9        29.68F
CHAMBERLAIN    CLOUDY    46  32  58 S6        29.67F
HURON          CLOUDY    42  26  53 S9        29.65F
MADISON        FAIR      37  27  65 SW15      29.69F
MITCHELL       CLOUDY    44  27  51 S8        29.68F
SIOUX FALLS    CLOUDY    40  26  57 SW8       29.73F
WINNER         FAIR      48  30  49 SW14      29.70F
YANKTON        PTCLDY    46  26  45 SW8       29.74F
$$

MNZ071-072-080-081-089-090-097-098-152300-
SOUTHWEST MINNESOTA

CITY           SKY/WX    TMP DP  RH WIND       PRES   REMARKS
FAIRMONT       CLOUDY    39  27  62 SW7       29.76F
JACKSON        CLOUDY    37  27  65 SW10      29.75S
LUVERNE        CLOUDY    37  23  56 SW10      29.74F
MARSHALL       CLOUDY    39  28  64 SW8       29.72F
MONTEVIDEO     CLOUDY    37  28  70 CALM      29.71S
PIPESTONE      CLOUDY    37  27  65 SW9       29.71S
REDWOOD FALLS  CLOUDY    39  30  70 SW5       29.72F
WINDOM           N/A     39  21  48 SW8       29.73F
WORTHINGTON    CLOUDY    38  26  62 SW12      29.74S
$$

IAZ001>003-012>014-020>022-031-032-NEZ013-014-SDZ071-152300-
NORTHWEST IOWA

CITY           SKY/WX    TMP DP  RH WIND       PRES   REMARKS
CHEROKEE       CLOUDY    44  22  42 SW13G18   29.77F
DENISON        CLEAR     43  25  49 SW10G18   29.81F
ESTHERVILLE    CLOUDY    40  25  55 SW13      29.75F
LE MARS        PTCLDY    43  25  49 SW6       29.77S
ORANGE CITY    PTCLDY    43  27  52 SW13      29.76R
SHELDON        CLOUDY    41  25  52 SW9G16    29.74R
SIOUX CITY     CLOUDY    46  24  42 SW12      29.78F
SPENCER        CLOUDY    42  24  49 SW13      29.76F
STORM LAKE     MOCLDY    43  23  45 SW18      29.77F
$$

ABBREVIATIONS USED IN REMARKS
   TC - TEMPERATURE IN CELSIUS
  WCI - WIND CHILL INDEX
   HX - HEAT INDEX
  VSB - VISIBILITY




USA.gov is the U.S. government's official web portal to all federal, state and local government web resources and services.